Location: Central Falls
(41.8900°N, 71.3929°W)
Time: 08:21:55
(UTC+00:00)

Tiros 1 despin weight - Pass Details

Date: 12 December 2023
Orbit: 581 x 624 km, 48.2° (Epoch: 29 February)

Event Time Altitude Azimuth Distance (km) Brightness Sun altitude
Rises 01:12:14 0° 297° (WNW) 2,801 ? -43.3°
Enters shadow 01:13:00 - 297° (WNW) 2,498 ? -43.5°
Reaches altitude 10° 01:14:31 10° 299° (WNW) 1,897 - -43.7°
Maximum altitude 01:18:51 79° 25° (NNE) 594 - -44.5°
Drops below altitude 10° 01:23:12 10° 113° (ESE) 1,893 - -45.3°
Sets 01:25:28 0° 115° (ESE) 2,795 - -45.8°
